TimeCDT,TemperatureF,Dew PointF,Humidity,Sea Level PressureIn,VisibilityMPH,Wind Direction,Wind SpeedMPH,Gust SpeedMPH,PrecipitationIn,Events,Conditions,WindDirDegrees,DateUTC
12:53 AM,75.0,66.9,76,29.55,-9999.0,East,6.9,-,N/A,,Unknown,100,2013-04-18 05:53:00
1:53 AM,75.9,68.0,76,29.60,-9999.0,North,16.1,24.2,N/A,,Unknown,350,2013-04-18 06:53:00
2:04 AM,77.0,68.0,74,29.72,-9999.0,NNW,6.9,18.4,N/A,,Unknown,340,2013-04-18 07:04:00
2:53 AM,79.0,25.0,14,29.58,-9999.0,NNW,26.5,38.0,N/A,,Unknown,340,2013-04-18 07:53:00
3:53 AM,75.9,21.0,13,29.59,-9999.0,NNW,20.7,46.0,N/A,,Unknown,330,2013-04-18 08:53:00
4:53 AM,66.0,30.9,27,29.68,-9999.0,North,21.9,32.2,N/A,,Unknown,10,2013-04-18 09:53:00
5:53 AM,62.1,32.0,32,29.73,-9999.0,North,19.6,27.6,N/A,,Unknown,360,2013-04-18 10:53:00
6:53 AM,57.9,32.0,37,29.78,-9999.0,North,24.2,40.3,N/A,,Unknown,360,2013-04-18 11:53:00
7:53 AM,55.0,34.0,45,29.86,-9999.0,North,17.3,25.3,N/A,,Unknown,360,2013-04-18 12:53:00
8:53 AM,55.0,33.1,43,29.91,-9999.0,North,12.7,24.2,N/A,,Unknown,350,2013-04-18 13:53:00
9:53 AM,57.9,32.0,37,29.93,-9999.0,North,12.7,20.7,N/A,,Unknown,360,2013-04-18 14:53:00
10:53 AM,59.0,30.0,33,29.95,-9999.0,North,13.8,24.2,N/A,,Unknown,350,2013-04-18 15:53:00
11:53 AM,62.1,28.9,29,29.96,-9999.0,North,17.3,24.2,N/A,,Unknown,350,2013-04-18 16:53:00
12:53 PM,63.0,27.0,26,29.95,-9999.0,North,10.4,21.9,N/A,,Unknown,350,2013-04-18 17:53:00
1:53 PM,66.9,27.0,22,29.91,-9999.0,North,11.5,21.9,N/A,,Unknown,350,2013-04-18 18:53:00
2:53 PM,69.1,26.1,20,29.89,-9999.0,North,16.1,24.2,N/A,,Unknown,360,2013-04-18 19:53:00
3:53 PM,70.0,26.1,19,29.87,-9999.0,NNW,13.8,-,N/A,,Unknown,340,2013-04-18 20:53:00
4:53 PM,71.1,24.1,17,29.87,-9999.0,NNE,15.0,23.0,N/A,,Unknown,20,2013-04-18 21:53:00
5:53 PM,71.1,23.0,16,29.89,-9999.0,North,11.5,21.9,N/A,,Unknown,360,2013-04-18 22:53:00
6:53 PM,70.0,21.9,16,29.91,-9999.0,North,12.7,19.6,N/A,,Unknown,350,2013-04-18 23:53:00
7:53 PM,66.9,21.0,17,29.94,-9999.0,NNE,11.5,-,N/A,,Unknown,30,2013-04-19 00:53:00
8:53 PM,62.1,21.0,21,29.97,-9999.0,NE,8.1,-,N/A,,Unknown,40,2013-04-19 01:53:00
9:53 PM,59.0,19.9,22,30.01,-9999.0,North,9.2,-,N/A,,Unknown,10,2013-04-19 02:53:00
10:53 PM,57.9,18.0,21,30.03,-9999.0,North,8.1,-,N/A,,Unknown,10,2013-04-19 03:53:00
11:53 PM,53.1,18.0,25,30.07,-9999.0,North,5.8,-,N/A,,Unknown,10,2013-04-19 04:53:00